GW2742 Weather Reports


time (UTC)temp
C
wind
direction
speed
KPH
gust
KPH
rain 1hr
cm
rain 24hr
cm
rain mn
cm
humidity
%
barometer
mb
20260505152524 7 338 1.6 8.0 0.00 0.00 0.00 44 1016.1
20260505152026 6 34 1.6 6.4 0.00 0.00 0.00 48 1016.2
20260505151540 6 256 1.6 6.4 0.00 0.00 0.00 48 1016.2
20260505151026 6 127 1.6 6.4 0.00 0.00 0.00 51 1016.2
20260505150523 5 175 1.6 6.4 0.00 0.00 0.00 50 1016.2
20260505140525 3 236 3.2 6.4 0.00 0.00 0.00 60 1016.6
20260505125023 1 257 1.6 4.8 0.00 0.00 0.00 70 1015.8
20260505124550 0 198 1.6 4.8 0.00 0.00 0.00 71 1015.8
20260505124025 0 193 0.0 4.8 0.00 0.00 0.00 71 1015.8
20260505123523 0 0 0.0 4.8 0.00 0.00 0.00 71 1015.8
20260505123049 0 274 1.6 4.8 0.00 0.00 0.00 70 1015.7
20260505122523 0 0 0.0 3.2 0.00 0.00 0.00 70 1015.6
20260505122031 0 0 0.0 3.2 0.00 0.00 0.00 70 1015.5
20260505121607 0 0 0.0 3.2 0.00 0.00 0.00 69 1015.5
20260505121023 0 0 0.0 3.2 0.00 0.00 0.00 70 1015.4
20260505120522 0 274 1.6 3.2 0.00 0.00 0.00 69 1015.5
20260505120037 1 273 1.6 3.2 0.00 0.00 0.00 68 1015.4
20260505115522 1 0 0.0 3.2 0.00 0.00 0.00 68 1015.4
20260505115022 1 0 0.0 3.2 0.00 0.00 0.00 67 1015.4
20260505114536 1 0 1.6 3.2 0.00 0.00 0.00 66 1015.4
20260505114023 1 131 0.0 4.8 0.00 0.00 0.00 65 1015.3
20260505113522 1 0 0.0 6.4 0.00 0.00 0.00 65 1015.2
20260505113046 1 131 1.6 6.4 0.00 0.00 0.00 65 1015.2
20260505112530 1 89 1.6 3.2 0.00 0.00 0.00 65 1015.2
20260505112024 1 89 0.0 6.4 0.00 0.00 0.00 64 1015.1
20260505111540 2 0 0.0 6.4 0.00 0.00 0.00 63 1015.2
20260505111025 2 112 1.6 6.4 0.00 0.00 0.00 63 1015.2
20260505110526 2 112 3.2 6.4 0.00 0.00 0.00 62 1015.2
20260505102022 3 96 1.6 6.4 0.00 0.00 0.00 56 1015.0
20260505101544 3 0 0.0 6.4 0.00 0.00 0.00 55 1015.1
20260505101022 4 0 0.0 6.4 0.00 0.00 0.00 54 1015.0
20260505100524 4 0 0.0 11.3 0.00 0.00 0.00 54 1015.0
20260505100048 4 0 1.6 11.3 0.00 0.00 0.00 53 1014.9
20260505095526 5 321 4.8 11.3 0.00 0.00 0.00 53 1015.0
20260505095025 5 326 4.8 9.7 0.00 0.00 0.00 53 1015.0
20260505094542 5 293 4.8 11.3 0.00 0.00 0.00 52 1015.0
20260505094023 5 326 4.8 11.3 0.00 0.00 0.00 52 1015.0
20260505093523 5 332 4.8 8.0 0.00 0.00 0.00 53 1015.0
20260505093038 5 303 1.6 4.8 0.00 0.00 0.00 54 1015.1
20260505092523 5 323 1.6 4.8 0.00 0.00 0.00 53 1015.0
20260505092022 5 323 1.6 4.8 0.00 0.00 0.00 53 1015.0
20260505091549 5 0 1.6 8.0 0.00 0.00 0.00 52 1015.0
20260505091025 6 332 3.2 9.7 0.00 0.00 0.00 51 1015.0
20260505090522 6 339 3.2 9.7 0.00 0.00 0.00 51 1015.0
20260505090055 6 307 3.2 8.0 0.00 0.00 0.00 50 1014.9
20260505085522 6 305 3.2 8.0 0.00 0.00 0.00 50 1015.0
20260505085026 6 311 3.2 8.0 0.00 0.00 0.00 50 1014.9
20260505084538 6 327 3.2 8.0 0.00 0.00 0.00 50 1014.9
20260505084024 6 337 3.2 8.0 0.00 0.00 0.00 50 1015.0
20260505083525 6 340 4.8 9.7 0.00 0.00 0.00 49 1015.1
20260505083047 6 314 3.2 12.9 0.00 0.00 0.00 49 1015.1
20260505082527 7 323 3.2 12.9 0.00 0.00 0.00 49 1015.1
20260505082023 7 304 4.8 12.9 0.00 0.00 0.00 49 1015.0
20260505081543 6 327 3.2 9.7 0.00 0.00 0.00 50 1015.0
20260505081022 6 357 3.2 9.7 0.00 0.00 0.00 51 1015.1
20260505080526 7 311 1.6 16.1 0.00 0.00 0.00 52 1015.1
20260505080045 7 352 3.2 16.1 0.00 0.00 0.00 50 1015.2
20260505075522 7 49 4.8 16.1 0.00 0.00 0.00 50 1015.2
20260505075024 6 0 1.6 8.0 0.00 0.00 0.00 51 1015.2
20260505074539 7 351 3.2 8.0 0.00 0.00 0.00 51 1015.2
20260505074025 7 342 4.8 8.0 0.00 0.00 0.00 51 1015.2
20260505073524 7 4 1.6 8.0 0.00 0.00 0.00 51 1015.1
20260505073045 7 1 3.2 9.7 0.00 0.00 0.00 50 1015.2
20260505072526 7 28 4.8 9.7 0.00 0.00 0.00 49 1015.2
20260505072027 7 341 3.2 11.3 0.00 0.00 0.00 50 1015.0
20260505071543 7 352 6.4 11.3 0.00 0.00 0.00 51 1015.2
20260505071026 7 32 6.4 11.3 0.00 0.00 0.00 53 1015.2
20260505070523 7 13 3.2 11.3 0.00 0.00 0.00 56 1015.1
20260505070038 7 349 6.4 11.3 0.00 0.00 0.00 56 1015.0
20260505065523 7 344 4.8 9.7 0.00 0.00 0.00 56 1015.0
20260505065022 7 17 4.8 9.7 0.00 0.00 0.00 56 1015.1
20260505064536 7 340 3.2 9.7 0.00 0.00 0.00 57 1015.1
20260505064022 7 338 4.8 9.7 0.00 0.00 0.00 57 1015.0
20260505063522 7 359 3.2 11.3 0.00 0.00 0.00 56 1015.2
20260505063046 7 78 4.8 14.5 0.00 0.00 0.00 56 1015.1
20260505062522 7 12 4.8 14.5 0.00 0.00 0.00 56 1015.1
20260505062030 7 30 3.2 14.5 0.00 0.00 0.00 57 1015.2
20260505061539 7 60 6.4 14.5 0.00 0.00 0.00 57 1015.1
20260505061026 7 42 4.8 20.9 0.00 0.00 0.00 58 1015.1
20260505060527 7 30 4.8 20.9 0.00 0.00 0.00 58 1015.1
20260505060039 7 20 8.0 17.7 0.00 0.00 0.00 58 1015.0
20260505055528 7 22 8.0 20.9 0.00 0.00 0.00 58 1015.0
20260505055027 7 355 9.7 25.7 0.00 0.00 0.00 58 1015.0
20260505054558 7 2 11.3 25.7 0.00 0.00 0.00 58 1014.9
20260505054028 7 13 6.4 14.5 0.00 0.00 0.00 57 1014.9
20260505053528 8 356 6.4 16.1 0.00 0.00 0.00 54 1014.8
20260505053048 8 32 6.4 16.1 0.00 0.00 0.00 52 1014.6
20260505052527 8 321 9.7 16.1 0.00 0.00 0.00 51 1014.5
20260505052028 8 354 9.7 17.7 0.00 0.00 0.00 51 1014.5
20260505051542 8 356 8.0 17.7 0.00 0.00 0.00 51 1014.4
20260505051027 8 356 6.4 14.5 0.00 0.00 0.00 51 1014.3
20260505050528 8 319 6.4 14.5 0.00 0.00 0.00 51 1014.5
20260505041548 9 330 9.7 19.3 0.00 0.00 0.00 49 1014.2
20260505041026 9 325 9.7 17.7 0.00 0.00 0.00 49 1014.0
20260505040527 9 347 9.7 17.7 0.00 0.00 0.00 50 1014.0
20260505040042 9 333 6.4 11.3 0.00 0.00 0.00 50 1014.0
20260505035526 9 347 6.4 11.3 0.00 0.00 0.00 50 1014.0
20260505035026 9 13 4.8 11.3 0.00 0.00 0.00 50 1014.0
20260505034537 9 313 4.8 11.3 0.00 0.00 0.00 49 1014.0
20260505034027 9 336 3.2 11.3 0.00 0.00 0.00 49 1013.9
20260505033527 9 333 3.2 11.3 0.00 0.00 0.00 48 1013.8
20260505033037 9 274 3.2 11.3 0.00 0.00 0.00 49 1013.8
20260505032527 9 335 3.2 11.3 0.00 0.00 0.00 48 1013.8
20260505032026 9 307 4.8 14.5 0.00 0.00 0.00 48 1013.7
20260505031541 9 333 8.0 14.5 0.00 0.00 0.00 48 1013.6
20260505031028 9 1 4.8 19.3 0.00 0.00 0.00 48 1013.6
20260505030527 9 336 4.8 19.3 0.00 0.00 0.00 48 1013.5
20260505030053 9 353 6.4 14.5 0.00 0.00 0.00 48 1013.3
20260505025528 9 311 6.4 14.5 0.00 0.00 0.00 48 1013.4
20260505025026 9 330 4.8 14.5 0.00 0.00 0.00 48 1013.4
20260505024537 9 327 8.0 16.1 0.00 0.00 0.00 48 1013.3
20260505024026 9 352 8.0 19.3 0.00 0.00 0.00 48 1013.3
20260505023528 9 347 8.0 19.3 0.00 0.00 0.00 47 1013.2
20260505023042 10 325 8.0 24.1 0.00 0.00 0.00 47 1013.1
20260505022526 10 340 9.7 24.1 0.00 0.00 0.00 47 1013.2
20260505022027 10 338 8.0 17.7 0.00 0.00 0.00 47 1013.2
20260505021549 10 333 8.0 17.7 0.00 0.00 0.00 46 1013.0
20260505021026 10 1 8.0 17.7 0.00 0.00 0.00 46 1013.0
20260505020526 10 286 6.4 20.9 0.00 0.00 0.00 46 1012.9
20260505020049 10 347 8.0 24.1 0.00 0.00 0.00 46 1013.0
20260505015527 10 330 8.0 25.7 0.00 0.00 0.00 45 1012.8
20260505015026 10 314 11.3 25.7 0.00 0.00 0.00 45 1012.8
20260505014537 10 308 11.3 22.5 0.00 0.00 0.00 44 1012.7
20260505014026 10 304 9.7 25.7 0.00 0.00 0.00 44 1012.7
20260505013526 10 324 9.7 25.7 0.00 0.00 0.00 44 1012.8
20260505013043 11 314 8.0 19.3 0.00 0.00 0.00 43 1012.8
20260505012526 11 305 9.7 19.3 0.00 0.00 0.00 43 1012.8
20260505012026 11 333 8.0 19.3 0.00 0.00 0.00 43 1012.7
20260505011541 11 319 8.0 19.3 0.00 0.00 0.00 43 1012.7
20260505011026 11 324 8.0 22.5 0.00 0.00 0.00 43 1012.6
20260505010525 11 335 8.0 22.5 0.00 0.00 0.00 43 1012.7
20260505005527 11 359 8.0 17.7 0.00 0.00 0.00 43 1012.5
20260505005031 11 298 8.0 17.7 0.00 0.00 0.00 44 1012.5
20260505004536 11 309 9.7 19.3 0.00 0.00 0.00 43 1012.3
20260505004027 11 330 9.7 19.3 0.00 0.00 0.00 43 1012.4
20260505003527 11 328 9.7 19.3 0.00 0.00 0.00 43 1012.3
20260505003046 11 317 9.7 25.7 0.00 0.00 0.00 43 1012.3
20260505002529 11 319 11.3 25.7 0.00 0.00 0.00 43 1012.2
20260505002026 11 310 8.0 25.7 0.00 0.00 0.00 42 1012.1
20260505001539 11 327 11.3 25.7 0.00 0.00 0.00 42 1012.0
20260505001025 11 300 11.3 25.7 0.00 0.00 0.00 42 1012.0
20260505000528 11 311 11.3 24.1 0.00 0.00 0.00 43 1012.0
20260505000051 11 262 11.3 24.1 0.00 0.00 0.00 43 1011.9
20260504235527 11 328 12.9 24.1 0.00 0.00 0.00 42 1011.9
20260504235025 11 295 11.3 25.7 0.00 0.00 0.00 43 1011.8
20260504234539 11 305 11.3 25.7 0.00 0.00 0.00 43 1011.9
20260504234026 11 286 11.3 25.7 0.00 0.00 0.00 43 1011.8
20260504233526 11 278 9.7 27.4 0.00 0.00 0.00 43 1011.6
20260504233044 11 356 11.3 27.4 0.00 0.00 0.00 43 1011.6
20260504232522 11 280 11.3 22.5 0.00 0.00 0.00 43 1011.7
20260504232022 11 328 11.3 25.7 0.00 0.00 0.00 43 1011.6
20260504231537 11 316 11.3 25.7 0.00 0.00 0.00 43 1011.6
20260504231022 11 293 11.3 24.1 0.00 0.00 0.00 43 1011.6
20260504230523 11 332 9.7 30.6 0.00 0.00 0.00 44 1011.8
20260504230043 11 322 11.3 30.6 0.00 0.00 0.00 43 1011.7
20260504225523 11 330 12.9 29.0 0.00 0.00 0.00 41 1011.7
20260504225024 12 251 12.9 27.4 0.00 0.00 0.00 42 1011.6
20260504224550 12 331 11.3 27.4 0.00 0.00 0.00 41 1011.6
20260504224025 13 349 11.3 30.6 0.00 0.00 0.00 40 1011.7
20260504223523 13 322 14.5 30.6 0.00 0.00 0.00 40 1011.7
20260504223039 12 2 14.5 29.0 0.00 0.00 0.00 40 1011.7
20260504222522 12 314 12.9 25.7 0.00 0.00 0.00 41 1011.7
20260504222023 12 324 11.3 29.0 0.00 0.00 0.00 41 1011.8
20260504221539 12 341 14.5 29.0 0.00 0.00 0.00 41 1011.8
20260504221028 13 276 9.7 32.2 0.00 0.00 0.00 41 1011.8
20260504220525 13 51 14.5 32.2 0.00 0.00 0.00 41 1011.8
20260504220043 13 352 14.5 32.2 0.00 0.00 0.00 40 1011.6
20260504215524 13 343 14.5 30.6 0.00 0.00 0.00 41 1011.6
20260504215022 13 325 12.9 30.6 0.00 0.00 0.00 40 1011.3
20260504214543 13 359 14.5 30.6 0.00 0.00 0.00 41 1011.3
20260504214022 13 359 11.3 30.6 0.00 0.00 0.00 40 1011.6
20260504213522 13 340 9.7 30.6 0.00 0.00 0.00 41 1011.6
20260504213042 13 359 12.9 30.6 0.00 0.00 0.00 40 1011.6
20260504212524 13 311 16.1 33.8 0.00 0.00 0.00 40 1011.6
20260504212023 14 314 16.1 33.8 0.00 0.00 0.00 41 1011.7
20260504211541 14 346 16.1 33.8 0.00 0.00 0.00 41 1011.7
20260504211022 14 323 11.3 25.7 0.00 0.00 0.00 41 1011.6
20260504210522 14 307 12.9 25.7 0.00 0.00 0.00 40 1011.5
20260504210052 15 327 11.3 22.5 0.00 0.00 0.00 40 1011.8
20260504205525 15 316 14.5 30.6 0.00 0.00 0.00 40 1011.6
20260504205029 14 354 14.5 30.6 0.00 0.00 0.00 42 1011.7
20260504204545 14 334 14.5 27.4 0.00 0.00 0.00 41 1011.7
20260504204021 14 343 14.5 27.4 0.00 0.00 0.00 41 1011.8
20260504203521 15 319 12.9 27.4 0.00 0.00 0.00 41 1011.8
20260504203039 15 303 12.9 29.0 0.00 0.00 0.00 41 1011.8
20260504202527 14 285 12.9 30.6 0.00 0.00 0.00 43 1011.8
20260504202027 15 341 12.9 30.6 0.00 0.00 0.00 41 1011.9
20260504201538 14 28 16.1 30.6 0.00 0.00 0.00 40 1011.8
20260504201029 14 339 14.5 29.0 0.00 0.00 0.00 43 1011.6
20260504200530 14 345 11.3 35.4 0.00 0.00 0.00 41 1011.6
20260504200052 14 345 14.5 35.4 0.00 0.00 0.00 41 1011.8
20260504195524 14 294 12.9 22.5 0.00 0.00 0.00 42 1011.7
20260504195027 14 343 9.7 22.5 0.00 0.00 0.00 41 1011.9
20260504194537 13 332 9.7 22.5 0.00 0.00 0.00 43 1011.9
20260504194028 13 304 11.3 25.7 0.00 0.00 0.00 42 1012.0
20260504193528 13 330 12.9 25.7 0.00 0.00 0.00 46 1012.0
20260504193042 13 340 9.7 25.7 0.00 0.00 0.00 44 1012.1
20260504192524 13 312 12.9 25.7 0.00 0.00 0.00 43 1012.1
20260504192030 13 344 9.7 22.5 0.00 0.00 0.00 45 1012.2
20260504191538 13 335 11.3 24.1 0.00 0.00 0.00 43 1012.2
20260504191027 13 343 8.0 24.1 0.00 0.00 0.00 44 1012.3
20260504190527 13 358 11.3 24.1 0.00 0.00 0.00 44 1012.4
20260504190036 13 357 11.3 24.1 0.00 0.00 0.00 46 1012.3
20260504185526 13 2 11.3 25.7 0.00 0.00 0.00 44 1012.5
20260504185027 13 7 11.3 25.7 0.00 0.00 0.00 45 1012.5
20260504184542 13 342 14.5 25.7 0.00 0.00 0.00 43 1012.5
20260504184031 13 347 9.7 22.5 0.00 0.00 0.00 45 1012.5
20260504183526 13 347 9.7 22.5 0.00 0.00 0.00 47 1012.6
20260504183038 12 331 6.4 24.1 0.00 0.00 0.00 48 1012.6
20260504182526 12 347 14.5 29.0 0.00 0.00 0.00 47 1012.7
20260504182024 12 68 9.7 29.0 0.00 0.00 0.00 47 1012.7
20260504181538 12 42 12.9 29.0 0.00 0.00 0.00 47 1012.5
20260504181027 12 60 14.5 29.0 0.00 0.00 0.00 48 1012.7
20260504180524 12 25 12.9 24.1 0.00 0.00 0.00 45 1012.8
20260504180037 13 72 8.0 27.4 0.00 0.00 0.00 47 1012.7
20260504175526 13 32 14.5 27.4 0.00 0.00 0.00 46 1012.8
20260504175026 13 60 14.5 27.4 0.00 0.00 0.00 44 1012.6
20260504174536 13 4 9.7 22.5 0.00 0.00 0.00 46 1012.7
20260504174027 12 323 12.9 22.5 0.00 0.00 0.00 44 1012.7
20260504173530 13 56 4.8 22.5 0.00 0.00 0.00 46 1012.6
20260504173037 13 18 8.0 20.9 0.00 0.00 0.00 45 1012.7
20260504172524 13 307 8.0 17.7 0.00 0.00 0.00 46 1012.7
20260504172027 12 360 8.0 19.3 0.00 0.00 0.00 46 1012.8
20260504171537 12 55 9.7 20.9 0.00 0.00 0.00 47 1012.9
20260504171027 12 3 6.4 20.9 0.00 0.00 0.00 46 1012.8
20260504170526 12 49 9.7 20.9 0.00 0.00 0.00 47 1012.9